Terminal Aerodrome Forecast
Issued by NWS Brownsville, TX

Home | Current Version | Previous Version | Text Only | Print | Product List | Glossary On
Versions: 1 2 3 4 5 6 7 8 9 10 11 12 13 14 15 16 17 18 19
000
FTUS44 KBRO 200600 CCA
TAFBRO
TAF COR
KBRO 200610Z 2006/2106 09003KT P6SM FEW017 OVC080
      TEMPO 2006/2010 BKN017
     FM201500 13006KT P6SM VCSH BKN020 OVC250
      TEMPO 2015/2018 5SM -TSRA BKN015CB
     FM201800 11008KT P6SM VCSH SCT030 BKN250
      TEMPO 2018/2022 5SM -TSRA BKN015CB
     FM210000 10005KT P6SM VCSH SCT030 OVC250 PROB30 2100/2106 P6SM
      -SHRA BKN025=

USA.gov is the U.S. government's official web portal to all federal, state and local government web resources and services.